Regional Weather Roundup
Issued by NWS

Home | Current Version | Previous Version | Text Only | Print | Product List | Glossary On
Versions: 1 2 3 4 5 6 7 8 9 10 11 12 13 14 15 16 17 18 19 20 21 22 23 24 25 26 27 28 29 30 31 32 33 34 35 36 37 38 39 40 41 42 43 44 45 46 47 48 49 50
000
ASUS43 KMPX 041810
RWRMN
WEATHER ROUNDUP FOR MINNESOTA
NATIONAL WEATHER SERVICE TWIN CITIES/CHANHASSEN MN
1200 PM CST SUN DEC 04 2016


NOTE: "FAIR" INDICATES FEW OR NO CLOUDS BELOW 12,000 FEET WITH NO
SIGNIFICANT WEATHER AND/OR OBSTRUCTIONS TO VISIBILITY. N/A MEANS
CURRENT SKY AND/OR WEATHER CONDITIONS ARE NOT AVAILABLE.

MNZ060>063-068>070-041900-
   Twin Cities Metro

CITY           SKY/WX    TMP DP  RH WIND       PRES   REMARKS
TWIN CITIES    CLOUDY    35  32  88 SW8       29.83F WCI  29
6HR MIN TEMP:  32; 6HR MAX TEMP:  35; 6HR PCP:  0.03;

ST PAUL        CLOUDY    33  33 100 S7        29.85F FOG     WCI  27
CRYSTAL        CLOUDY    34  31  88 S9        29.81F FOG     WCI  27
BLAINE         CLOUDY    36  36 100 S7        29.82F FOG
LAKEVILLE        N/A     34  34 100 SW3       29.83F FOG
EDEN PRAIRIE   CLOUDY    35  32  88 S8        29.82F FOG     WCI  29
6HR MIN TEMP:  33; 6HR MAX TEMP:  35; 6HR PCP: TRACE;

SOUTH ST PAUL  CLOUDY    34  33  97 S3        29.84F FOG
LAKE ELMO      CLOUDY    34  32  93 S7        29.84F FOG     WCI  28
$$
MNZ001>005-007-008-013>017-022>024-027-028-041900-
   Northwest Minnesota

CITY           SKY/WX    TMP DP  RH WIND       PRES   REMARKS
BEMIDJI        LGT SNOW  32  31  96 SE9       29.69F WCI  24
HALLOCK        CLOUDY    34  30  86 SW12      29.64F WCI  25
ROSEAU         CLOUDY    34  28  80 SE12      29.66F WCI  25
WARROAD        LGT SNOW  32  28  86 SE14      29.68F WCI  22
THIEF RVR FALL CLOUDY    32  31  96 S12       29.68F WCI  23
CROOKSTON      CLOUDY    34  32  93 SW8       29.69F FOG     WCI  27
FOSSTON        LGT SNOW  30  30 100 S12G17    29.68F WCI  21
DETROIT LAKES  CLOUDY    32  32 100 S10       29.70F WCI  24
MOORHEAD       CLOUDY    32  30  93 SW7       29.72F WCI  26
PARK RAPIDS    LGT SNOW  34  30  85 S12       29.70F FOG     WCI  25
$$
MNZ006-009>011-018-025>026-041900-
   North Central Minnesota

CITY           SKY/WX    TMP DP  RH WIND       PRES   REMARKS
BAUDETTE       FLURRIES  31  28  89 SE14      29.70F WCI  21
FLAG ISLAND    LGT SNOW  30  28  93 SE17      29.69F WCI  18
INTL FALLS     CLOUDY    30  27  88 SE9       29.76F FOG     WCI  22
6HR MIN TEMP:  27; 6HR MAX TEMP:  30; 6HR PCP:  0.06;

WASKISH        LGT SNOW  32  30  93 SE10      29.72F WCI  24
BIG FORK       LGT SNOW  32  28  86 SE6       29.75F WCI  26
LONGVILLE      LGT SNOW  32  30  93 SE10      29.73F WCI  24
GRAND RAPIDS   FLURRIES  31  28  89 S9        29.77F WCI  23
CRANE LAKE     CLOUDY    30  28  93 CALM      29.81F
ORR            MIX PCPN  30  27  86 SE8       29.76F WCI  23
COOK           LGT SNOW  30  28  93 SE7       29.79F WCI  23
$$
MNZ012-019>021-037-041900-
   Northeast Minnesota

CITY           SKY/WX    TMP DP  RH WIND       PRES   REMARKS
DULUTH         LGT SNOW  31  29  92 SE9       29.81F FOG     WCI  23
6HR MIN TEMP:  27; 6HR MAX TEMP:  31; 6HR PCP:  0.14;

ELY            LGT SNOW  30  28  93 SE8       29.81F WCI  23
HIBBING        LGT SNOW  29  27  92 SE10      29.78F FOG     WCI  20
EVELETH        LGT SNOW  32  31  94 SE9       29.80F WCI  24
DULUTH HARBOR  MIX PCPN  34  30  86 S5        29.86F WCI  30
TWO HARBORS    LGT SNOW  34  28  80 SE6       29.83F VSB 3/4 WCI  29
SILVER BAY     LGT SNOW  32  30  93 SE5       29.84F WCI  27
GRAND MARAIS     N/A     34  33  96 S7        29.91F WCI  28
G MARAIS ARPRT LGT SNOW  28  25  86 E7        29.86F WCI  21
$$
MNZ029>031-032-039>041-046>048-054>057-064-041900-
   West Central Minnesota

CITY           SKY/WX    TMP DP  RH WIND       PRES   REMARKS
FERGUS FALLS   CLOUDY    32  32 100 SW8       29.76F FOG     WCI  25
WHEATON        CLOUDY   N/A N/A N/A W9        29.77S
MORRIS         PTSUNNY   36  34  93 SW9       29.74F
ALEXANDRIA     CLOUDY    33  32  96 SW12      29.73F FOG     WCI  24
ELBOW LAKE     CLOUDY    32  32  99 SW8       29.73F WCI  25
WADENA         LGT SNOW  32  30  93 S8        29.71F WCI  25
GLENWOOD       CLOUDY    34  32  93 S12       29.74F FOG     WCI  25
APPLETON       MOSUNNY   39  34  81 W12       29.76F
BENSON         CLOUDY    37  34  87 W13       29.76F
ORTONVILLE     PTSUNNY   37  28  70 W13G18    29.76F
MADISON        SUNNY     43  34  70 W18       29.78F
WILLMAR        CLOUDY    37  34  87 W15       29.79F
$$
MNZ033>034-036-042>043-049>051-058-059-041900-
   Central Minnesota

CITY           SKY/WX    TMP DP  RH WIND       PRES   REMARKS
ST CLOUD       CLOUDY    33  33 100 S12       29.78F WCI  24
6HR MIN TEMP:  32; 6HR MAX TEMP:  33; 6HR PCP: TRACE;

PAYNESVILLE    CLOUDY    34  34 100 SW9       29.77F FOG     WCI  26
AITKIN         MIX PCPN  34  30  86 SE7       29.75F WCI  28
PINE RIVER     LGT SNOW  32  32 100 SE9       29.77F WCI  24
BRAINERD       CLOUDY    32  31  96 S9        29.75F FOG     WCI  24
STAPLES        CLOUDY    30  30 100 S12       29.73F FOG     WCI  21
LONG PRAIRIE   CLOUDY    32  32 100 SE9       29.74F FOG     WCI  24
LITTLE FALLS   CLOUDY    32  32 100 S6        29.77F FOG     WCI  26
LITCHFIELD     CLOUDY    36  34  93 SW3       29.79F
BUFFALO        CLOUDY    34  32  92 S9        29.82F WCI  27
MAPLE LAKE     CLOUDY    35  34  97 S7        29.81F WCI  29
$$
MNZ037-044-045-052-053-041900-
   East Central Minnesota

CITY           SKY/WX    TMP DP  RH WIND       PRES   REMARKS
PRINCETON      CLOUDY    36  34  93 SE9       29.80F FOG
MORA           CLOUDY    32  30  93 S6        29.82F FOG     WCI  26
CAMBRIDGE      CLOUDY    34  32  93 SE7       29.80F FOG     WCI  28
RUSH CITY      CLOUDY    32  30  93 S7        29.83F WCI  26
MOOSE LAKE     CLOUDY    32  30  93 S7        29.80F WCI  26
HINCKLEY       CLOUDY    32  32 100 S8        29.82F FOG     WCI  25
CLOQUET        LGT SNOW  30  28  93 SE6       29.81F WCI  24
MCGREGOR       CLOUDY    32  30  93 S10       29.78F WCI  24
$$
MNZ071>073-080-081-089-090-097-098-041900-
   Southwest Minnesota

CITY           SKY/WX    TMP DP  RH WIND       PRES   REMARKS
MONTEVIDEO     PTSUNNY   39  39 100 W12       29.79F
GRANITE FALLS  MOSUNNY   40  35  81 SW13      29.81F
CANBY          SUNNY     39  31  74 SW15      29.80F
MARSHALL       SUNNY     39  31  72 W21       29.80F
REDWOOD FALLS  PTSUNNY   38  32  79 SW14      29.80F
OLIVIA         CLOUDY    36  32  87 SW15      29.79F
PIPESTONE      SUNNY     37  32  81 W13       29.81F
WINDOM         CLOUDY    37  34  87 SW15      29.82F
WORTHINGTON    PTSUNNY   39  33  79 W18       29.83F
JACKSON        CLOUDY    34  32  93 SW12      29.85S WCI  25
TRACY          SUNNY     39  33  80 SW12      29.81F
SLAYTON        SUNNY     36  32  86 W18       29.81F
$$
MNZ065>067-074>077-082>085-091>093-041900-
   South Central Minnesota

CITY           SKY/WX    TMP DP  RH WIND       PRES   REMARKS
MANKATO        CLOUDY    35  32  88 SW13      29.84F WCI  26
NEW ULM        CLOUDY    37  34  87 SW9       29.82F
ST JAMES       CLOUDY    39  34  81 S12       29.84F
FAIRMONT       CLOUDY    36  33  89 SW13      29.85F
GLENCOE        CLOUDY    35  35 100 S7        29.81F WCI  29
FARIBAULT      CLOUDY    34  34 100 S7G17     29.85F WCI  28
OWATONNA       FOG       34  32  93 S12       29.85F VSB 1   WCI  25
WASECA         CLOUDY    34  32  93 SW13      29.86F WCI  25
ALBERT LEA     CLOUDY    37  37 100 SW10      29.85F FOG
$$
MNZ078>079-086>088-094>096-041900-
   Southeast Minnesota

CITY           SKY/WX    TMP DP  RH WIND       PRES   REMARKS
ROCHESTER      FOG       33  32  96 S14       29.86F VSB 3/4 WCI  23
6HR MIN TEMP:  32; 6HR MAX TEMP:  33; 6HR PCP:  0.13;

RED WING       CLOUDY    34  34 100 S6        29.86F FOG     WCI  29
STANTON        CLOUDY    35  33  92 SW9       29.84F FOG     WCI  27
DODGE CENTER   CLOUDY    32  32 100 SW12      29.84F FOG     WCI  23
WINONA         LGT SNOW  34  34 100 SE5       29.91F WCI  30
AUSTIN         FOG       34  30  86 SW10      29.86F VSB 3/4 WCI  26
PRESTON        LGT SNOW  32  31  94 S12       29.88F WCI  23
$$
ABBREVIATIONS USED IN REMARKS
   TC - TEMPERATURES IN CELSIUS
  WCI - WIND CHILL INDEX
   HX - HEAT INDEX
  VSB - VISIBILITY
$$



USA.gov is the U.S. government's official web portal to all federal, state and local government web resources and services.